Skip Page Navigation
NASA JPL Caltech
NASA Logo - Jet Propulsion Laboratory + View the NASA Portal
+ Near-Earth Object (NEO) Program
Search JPL
JPL Home Earth Solar System Stars & Galaxies Technology
JPL Solar System Dynamics
BODIES ORBITS EPHEMERIDES TOOLS PHYSICAL DATA DISCOVERY FAQ SITE MAP
JPL Small-Body Database Browser
Search: [ help ]  
10992 Veryuslaviya (1974 SF)
Classification: Main-belt Asteroid          SPK-ID: 2010992
Ephemeris | Orbit Diagram | Orbital Elements | Physical Parameters | Discovery Circumstances | Close-Approach Data ]

[ show orbit diagram ]
Orbital Elements at Epoch 2457600.5 (2016-Jul-31.0) TDB
Reference: JPL 20 (heliocentric ecliptic J2000)
 Element Value Uncertainty (1-sigma)   Units 
e .2420023559543508 6.2504e-08  
a 2.364271495724901 1.0391e-08 au
q 1.792112223643758 1.4529e-07 au
i 4.96408762926119 6.1394e-06 deg
node 187.4329035417081 4.8709e-05 deg
peri 175.9732043590541 4.9537e-05 deg
M 185.3386716373626 8.5168e-06 deg
tp 2458244.726676458976
(2018-May-06.22667646)
3.2713e-05 JED
period 1327.836022429123
3.64
8.7542e-06
2.397e-08
d
yr
n .2711178141871926 1.7874e-09 deg/d
Q 2.936430767806044 1.2906e-08 au
  Orbit Determination Parameters
   # obs. used (total)      861  
   data-arc span      15172 days (41.54 yr)  
   first obs. used      1974-09-19  
   last obs. used      2016-04-03  
   planetary ephem.      DE431  
   SB-pert. ephem.      SB431-BIG16  
   condition code      0  
   fit RMS      .58973  
   data source      ORB  
   producer      Otto Matic  
   solution date      2016-Apr-25 13:10:28  

Additional Information
 Earth MOID = .788799 au 
 Jupiter MOID = 2.51632 au 
 T_jup = 3.504 
[ show covariance matrix ]

Ephemeris | Orbit Diagram | Orbital Elements | Physical Parameters | Discovery Circumstances | Close-Approach Data ]

Physical Parameter Table
Parameter Symbol Value Units Sigma Reference Notes
absolute magnitude H 15.2 mag n/a MPO302133  

10992 Veryuslaviya           Discovered 1974 Sept. 19 by L. I. Chernykh at the Crimean Astrophysical Observatory.
This name is formed from the names of three members of the Chubenko family: Vera Ivanovna (b. 1951) and her sons Vyacheslav (b. 1973), an astronomer and fanciful writer, and Yury (b. 1978), a journalist who made a great contribution to the social rehabilitation of children and people with specific physical facilities.
NOTE: some special characters may not display properly (any characters within {} are an attempt to place the proper accent above a character)
Reference: 20070402/MPCPages.arcLast Updated: 2007-07-05

[ show close-approach data ]
Alternate Designations
 1974 SF = 1985 UC2 = 1985 UV3 
Ephemeris | Orbit Diagram | Orbital Elements | Physical Parameters | Discovery Circumstances | Close-Approach Data ]
ABOUT SSD CREDITS/AWARDS PRIVACY/COPYRIGHT GLOSSARY LINKS
FirstGov 2016-Apr-30 11:14 UT
(server date/time)  
NASA Home Page
Site Manager:   Ryan S. Park
Webmaster  Alan B. Chamberlin